Flag for Myanmar Weather past 2 weeks in Mandalay, Myanmar

Now
72 °F

Passing clouds.


Feels Like: 71 °F
Forecast: 76 / 92 °F
Wind: No wind

Location: Chiang Mai Airport

Current Time: Apr 27, 2015 at 4:33:44 AM

Latest Report: Apr 27, 2015 at 4:00 AM


Visibility: N/A

Pressure: 29.95 "Hg

Humidity: 83%

Dew point: 66 °F

Location of MandalayLocation

Historic Weather in Mandalay — Graph

°F

Mandalay temperature yesterday

Maximum temperature yesterday: 86 °F (at 4:00 PM)
Minimum temperature yesterday: 75 °F (at 3:30 AM)
Average temperature yesterday: 81 °F

Past Weeks' High & Low Weather Summary

 TemperatureHumidityPressure
High102 °F (Apr 21, 2:30 PM)94% (Apr 23, 11:00 PM)30.15 "Hg (Apr 23, 11:00 PM)
Low70 °F (Apr 23, 7:30 PM)20% (Apr 21, 3:00 PM)29.53 "Hg (Apr 21, 5:00 PM)
Average85 °F51%29.92 "Hg
* Reported Apr 12 2:30 AM — Apr 27 3:00 AM, Mandalay, Weather by CustomWeather, © 2015

Note: Actual official high and low records may vary slightly from our data, if they occured in-between our weather recording intervals... More about our weather records

Advertising

Mandalay weather history for previous 24 hours

 ConditionsComfort  
Time TempWeatherWind HumidityBarometerVisibility
3:00 AM
Mon, Apr 27
72 °FPassing clouds.2 mph88%29.95 "HgN/A
2:30 AM72 °FLight rain. Passing clouds.2 mph88%29.95 "HgN/A
2:00 AM73 °FLight rain. Passing clouds.2 mph83%29.95 "HgN/A
1:30 AM73 °FLight rain. Passing clouds.2 mph83%29.98 "HgN/A
1:00 AM72 °FLight rain. Passing clouds.5 mph94%29.98 "HgN/A
12:30 AM73 °FLight rain. Passing clouds.2 mph83%30.01 "HgN/A
12:00 AM73 °FRain. Passing clouds.2 mph83%30.01 "HgN/A
11:30 PM
Sun, Apr 26
75 °FPassing clouds.7 mph69%30.04 "HgN/A
11:00 PM77 °FPassing clouds.8 mph69%30.04 "HgN/A
10:30 PM79 °FPassing clouds.12 mph65%30.01 "HgN/A
10:00 PM82 °FPassing clouds.7 mph58%30.01 "HgN/A
9:30 PM81 °FPassing clouds.8 mph66%30.01 "HgN/A
9:00 PM81 °FPassing clouds.6 mph70%29.98 "HgN/A
8:30 PM82 °FPassing clouds.6 mph62%29.98 "HgN/A
8:00 PM82 °FPassing clouds.5 mph62%29.98 "HgN/A
7:30 PM82 °FPassing clouds.5 mph62%29.98 "HgN/A
7:00 PM82 °FPassing clouds.7 mph62%29.95 "HgN/A
6:30 PM84 °FPassing clouds.7 mph62%29.92 "HgN/A
6:00 PM84 °FScattered clouds.6 mph55%29.92 "HgN/A
5:30 PM86 °FBroken clouds.2 mph52%29.92 "HgN/A
5:00 PM86 °FBroken clouds.No wind52%29.89 "HgN/A
4:30 PM86 °FPartly sunny.2 mph52%29.89 "HgN/A
4:00 PM86 °FPartly sunny.5 mph55%29.89 "HgN/A
3:30 PM84 °FPartly sunny.2 mph58%29.92 "HgN/A
3:00 PM82 °FPartly sunny.5 mph62%29.92 "HgN/A
2:30 PM82 °FPartly sunny.5 mph66%29.92 "HgN/A
2:00 PM82 °FPartly sunny.3 mph66%29.95 "HgN/A
1:30 PM81 °FPartly sunny.6 mph70%29.95 "HgN/A
1:00 PM81 °FPartly sunny.7 mph66%29.98 "HgN/A
12:30 PM81 °FPartly sunny.7 mph70%30.01 "HgN/A
12:00 PM81 °FPartly sunny.12 mph66%30.01 "HgN/A
11:30 AM81 °FPartly sunny.13 mph66%30.04 "HgN/A
11:00 AM82 °FPartly sunny.13 mph58%30.04 "HgN/A
10:30 AM84 °FScattered clouds.14 mph55%30.04 "HgN/A
10:00 AM81 °FScattered clouds.15 mph66%30.04 "HgN/A
9:30 AM81 °FScattered clouds.16 mph66%30.04 "HgN/A
9:00 AM81 °FPartly sunny.13 mph66%30.04 "HgN/A
8:30 AM81 °FPartly sunny.13 mph66%30.04 "HgN/A
8:00 AM79 °FPartly sunny.13 mph70%30.04 "HgN/A
7:30 AM77 °FPartly sunny.10 mph74%30.04 "HgN/A
7:00 AM77 °FPartly sunny.9 mph74%30.01 "HgN/A
6:30 AM77 °FPartly sunny.13 mph74%30.01 "HgN/A
6:00 AM77 °FPartly sunny.13 mph74%30.01 "HgN/A
5:30 AM77 °FPartly sunny.10 mph74%30.01 "HgN/A
5:00 AM77 °FPassing clouds.10 mph74%29.98 "HgN/A
4:30 AM77 °FPassing clouds.7 mph74%29.98 "HgN/A
Weather by CustomWeather, © 2015

See weather overviewHow to use our weather pages